Location: LDNL
(36.4545°S, 141.6685°E)
Time: 11:12:29
(UTC+10:00)

Explorer 7 - Pass Details

Date: 12 August 2022
Orbit: 482 x 668 km, 50.3° (Epoch: 26 September)

Event Time Altitude Azimuth Distance (km) Brightness Sun altitude
Rises 20:58:05 0° 251° (WSW) 2,995 11.5 -36.7°
Reaches altitude 10° 21:01:20 10° 229° (SW) 2,058 10.3 -37.3°
Enters shadow 21:01:56 12° 223° (SW) 1,926 10.0 -37.5°
Maximum altitude 21:04:15 16° 191° (S) 1,667 - -37.9°
Drops below altitude 10° 21:07:07 10° 153° (SSE) 1,997 - -38.5°
Sets 21:10:12 0° 130° (SE) 2,861 - -39.1°
